Regional Weather Roundup
Issued by NWS

Home | Current Version | Previous Version | Graphics & Text | Print | Product List | Glossary On
Versions: 1 2 3 4 5 6 7 8 9 10 11 12 13 14 15 16 17 18 19 20 21 22 23 24 25 26 27 28 29 30 31 32 33 34 35 36 37 38 39 40 41 42 43 44 45 46 47 48 49 50
000
ASUS43 KLOT 201403
RWRIL

ILLINOIS REGIONAL WEATHER ROUNDUP
NATIONAL WEATHER SERVICE CHICAGO/ROMEOVILLE IL
900 AM CDT WED SEP 20 2017

NOTE: "FAIR" INDICATES FEW OR NO CLOUDS BELOW 12,000 FEET WITH NO
SIGNIFICANT WEATHER AND/OR OBSTRUCTIONS TO VISIBILITY.

* THESE STATIONS ARE NOT UNDER NWS QUALITY CONTROL. THEY ALSO MAY NOT
  REPORT WEATHER SUCH AS PRECIPITATION OR FOG.

ILZ001-002-007-009-015-016-024-201500-
NORTHWEST ILLINOIS

CITY           SKY/WX    TMP DP  RH WIND       PRES   REMARKS
MOLINE         MOSUNNY   76  67  73 S8        29.83S
STERLING*        N/A     74  67  78 VRB7      29.86S
SAVANNA*       SUNNY     73  66  78 S9        29.85R
$$

ILZ003-004-008-010-011-017-018-201500-
NORTH CENTRAL ILLINOIS

CITY           SKY/WX    TMP DP  RH WIND       PRES   REMARKS
ROCKFORD       PTSUNNY   71  65  81 S12       29.88S
FREEPORT*      SUNNY     71  65  83 S12       29.87S
ROCHELLE*      SUNNY     71  66  83 S13       29.89S
DE KALB*       SUNNY     70  67  88 SE12      29.90F
PERU*          SUNNY     72  65  79 S10       29.89S
$$

ILZ005-006-012>014-019>023-201500-
NORTHEAST ILLINOIS

CITY           SKY/WX    TMP DP  RH WIND       PRES   REMARKS
CHICAGO-OHARE  MOSUNNY   73  65  75 SE12      29.91S
CHICAGO-MIDWAY MOSUNNY   74  66  76 SE10      29.92S
AURORA         SUNNY     72  68  87 SE10      29.90F
LANSING*       SUNNY     71  68  91 S5        29.94S
JOLIET*        SUNNY     73  68  84 S8        29.91S
WAUKEGAN       MOSUNNY   69  68  96 SE12      29.91S FOG
DUPAGE AIRPORT SUNNY     72  68  87 S8        29.90S
KANKAKEE*      SUNNY     72  69  91 S9        29.95S
WHEELING       SUNNY     73  68  84 SE10      29.92F
MORRIS*        SUNNY     71  68  89 SE8       29.90F
ROMEOVILLE*    SUNNY     72  67  85 S8        29.92S
NORTHERLY ISL    N/A     72  67  84 E8          N/A
$$

LMZ740>746-201500-
SOUTHERN LAKE MICHIGAN

STATION/POSITION SKY/WX   TEMP    WIND        PRES    VSBY  WAVE
                          AIR SEA DIR/SP/G                  HT/PER
                          (F)     (DEG/KT/KT) (MB)    (MI)  (FT/S)
SOUTHERN BUOY              68 68  110/ 12/ 12 1013.9          1
WILMETTE HARBOR            69 69  140/ 12/ 16   N/A           2/ 2
HARRISON CRIB              70     150/ 10/ 12   N/A
CALUMET HARBOR             71     150/  6/ 11 1012.9F
BURNS HARBOR               71     160/  6/ 15 1014.6S
MICHIGAN CITY              69     130/ 11/ 13   N/A
MICHIGAN CITY 6N           69 69  160/ 10/ 12   N/A           1
ST. JOSEPH                 67 69  150/ 10/ 12 1014.5F         1
$$

ILZ025>027-034>036-040-047-049-050-058-095>099-201500-
WEST-CENTRAL ILLINOIS

CITY           SKY/WX    TMP DP  RH WIND       PRES   REMARKS
QUINCY         SUNNY     77  69  76 S13       29.86S
GALESBURG*     SUNNY     74  69  83 S8        29.87S
MACOMB*        SUNNY     74  69  85 S8        29.88S
PITTSFIELD*    SUNNY     76  71  84 S7        29.90S
$$

ILZ028>032-037-038-041>044-048-051>054-059>061-201500-
CENTRAL ILLINOIS

CITY           SKY/WX    TMP DP  RH WIND       PRES   REMARKS
PONTIAC        SUNNY     73  72  94 SE8       29.92F
BLOOMINGTON    CLOUDY    73  68  84 S12       29.93F
DECATUR        SUNNY     75  69  81 S9        29.94S
PEORIA         SUNNY     75  69  81 S12       29.89S
LACON*         SUNNY     74  69  83 S7        29.88S HAZE
LINCOLN*       SUNNY     76  71  84 S8        29.91S
SPRINGFIELD    SUNNY     80  71  74 S9        29.90F HX  84
TAYLORVILLE    NOT AVBL
$$

ILZ033-039-045-046-055>057-062-063-201500-
EAST-CENTRAL ILLINOIS

CITY           SKY/WX    TMP DP  RH WIND       PRES   REMARKS
CHAMPAIGN      MOSUNNY   74  69  85 S6        29.96R
MATTOON        SUNNY     74  71  91 S12       29.96S
PARIS*         SUNNY     77  72  84 S9        29.99R
$$

ILZ079-100>102-201500-
SOUTHWEST ILLINOIS

CITY           SKY/WX    TMP DP  RH WIND       PRES   REMARKS
ALTON          SUNNY     77  72  83 SE6       29.93R
CAHOKIA*       SUNNY     79  69  71 S7        29.92R HX  81
SPARTA*        SUNNY     76  71  83 S7        29.96R
$$

ILZ064>066-069>071-074>076-080>082-084>086-088>090-092>094-201500-
SOUTH-CENTRAL ILLINOIS

CITY           SKY/WX    TMP DP  RH WIND       PRES   REMARKS
CARBONDALE     SUNNY     77  74  90 S6        29.97R
CAIRO*         SUNNY     76  73  88 S7        29.99R
EFFINGHAM*     SUNNY     76  73  90 SE6       29.98S
MARION         SUNNY     77  77 100 S5        29.98R
MT. VERNON       N/A     77  72  84 S6        29.97S
CENTRALIA*     SUNNY     79  72  80 CALM      29.95S HX  82
SALEM*         SUNNY     78  71  78 S6        29.96S HX  80
METROPOLIS*    LGT RAIN  77  72  85 S7        30.00R
$$

ILZ067-068-072-073-078-083-087-091-201500-
SOUTHEAST ILLINOIS

CITY           SKY/WX    TMP DP  RH WIND       PRES   REMARKS
LAWRENCEVILLE  SUNNY     75  71  87 S6        29.99S
FLORA*         SUNNY     78  72  83 S6        29.98R HX  80
FAIRFIELD*     SUNNY     77  71  82 S3        29.97S
HARRISBURG*    SUNNY     77  72  85 S5        29.99R
ROBINSON*      SUNNY     75  71  88 S7        30.00S
CARMI*         SUNNY     74  72  92 SE6       29.99R
$$

ABBREVIATIONS USED IN REMARKS
   TC - TEMPERATURE IN CELSIUS
  WCI - WIND CHILL INDEX
   HX - HEAT INDEX
  VSB - VISIBILITY
$$




USA.gov is the U.S. government's official web portal to all federal, state and local government web resources and services.